DW5891 Weather Reports


Display with metric or nautical units.
time (UTC)temp
F
wind
direction
speed
MPH
gust
MPH
rain 1hr
in
rain 24hr
in
rain mn
in
humidity
%
barometer
mb
20260504023028 67 261 12.0 0.0 0.00 0.00 0.00 33 991.1
20260504021527 68 293 12.0 0.0 0.00 0.00 0.00 33 991.0
20260504020028 69 269 14.0 0.0 0.00 0.00 0.00 33 991.0
20260504014536 70 279 16.0 0.0 0.00 0.00 0.00 32 990.9
20260504013026 71 296 17.0 0.0 0.00 0.00 0.00 31 990.9
20260504011527 72 270 19.0 0.0 0.00 0.00 0.00 27 990.8
20260504010027 73 273 18.0 0.0 0.00 0.00 0.00 24 990.9
20260504004524 73 248 16.0 0.0 0.00 0.00 0.00 24 991.0
20260504003030 74 251 17.0 0.0 0.00 0.00 0.00 23 991.1
20260504001522 74 253 17.0 0.0 0.00 0.00 0.00 24 991.2
20260504000020 75 261 19.0 0.0 0.00 0.00 0.00 22 991.5
20260503234519 75 244 20.0 0.0 0.00 0.00 0.00 22 991.7
20260503233017 75 259 19.0 0.0 0.00 0.00 0.00 21 991.7
20260503231518 76 236 20.0 0.0 0.00 0.00 0.00 21 991.9
20260503230014 75 246 16.0 0.0 0.00 0.00 0.00 26 992.1
20260503224515 75 223 17.0 0.0 0.00 0.00 0.00 25 992.3
20260503223009 75 221 17.0 0.0 0.00 0.00 0.00 24 992.7
20260503221506 74 219 17.0 0.0 0.00 0.00 0.00 26 993.1
20260503220005 73 255 17.0 0.0 0.00 0.00 0.00 25 993.6
20260503214502 74 231 16.0 0.0 0.00 0.00 0.00 24 993.8
20260503213100 72 227 16.0 0.0 0.00 0.00 0.00 24 994.4
20260503211557 72 241 14.0 0.0 0.00 0.00 0.00 26 994.7
20260503210057 73 215 16.0 0.0 0.00 0.00 0.00 27 994.9
20260503204601 72 235 16.0 0.0 0.00 0.00 0.00 29 995.1
20260503203056 71 250 18.0 0.0 0.00 0.00 0.00 27 995.3
20260503201552 72 223 17.0 0.0 0.00 0.00 0.00 31 995.4
20260503200050 73 215 15.0 0.0 0.00 0.00 0.00 29 995.6
20260503194548 72 221 16.0 0.0 0.00 0.00 0.00 28 996.0
20260503193048 73 231 19.0 0.0 0.00 0.00 0.00 30 996.3
20260503191543 72 234 20.0 0.0 0.00 0.00 0.00 31 996.6
20260503190046 71 236 18.0 0.0 0.00 0.00 0.00 33 997.0
20260503184542 71 248 21.0 0.0 0.00 0.00 0.00 33 997.4
20260503183037 71 230 19.0 0.0 0.00 0.00 0.00 33 997.8
20260503181534 71 270 19.0 0.0 0.00 0.00 0.00 32 998.1
20260503180044 70 213 18.0 0.0 0.00 0.00 0.00 33 998.4
20260503174532 69 232 22.0 0.0 0.00 0.00 0.00 34 998.8
20260503173028 69 245 19.0 0.0 0.00 0.00 0.00 33 999.1
20260503171528 68 221 18.0 0.0 0.00 0.00 0.00 36 999.2
20260503081517 42 161 6.0 0.0 0.00 0.00 0.00 66 1003.7
20260503071510 42 159 5.0 0.0 0.00 0.00 0.00 64 1003.9
20260503060113 39 172 3.0 0.0 0.00 0.00 0.00 73 1003.9
20260503054619 39 165 3.0 0.0 0.00 0.00 0.00 74 1003.9
20260503053053 39 165 3.0 0.0 0.00 0.00 0.00 74 1003.9
20260503051551 39 167 2.0 0.0 0.00 0.00 0.00 73 1003.9
20260503050050 39 168 3.0 0.0 0.00 0.00 0.00 73 1003.9
20260503044549 39 169 4.0 0.0 0.00 0.00 0.00 72 1004.1
20260503043050 40 169 4.0 0.0 0.00 0.00 0.00 71 1004.1
20260503041544 41 161 2.0 0.0 0.00 0.00 0.00 69 1004.0
20260503040052 41 159 3.0 0.0 0.00 0.00 0.00 67 1004.0
20260503034544 42 159 3.0 0.0 0.00 0.00 0.00 67 1004.0
20260503033037 42 157 3.0 0.0 0.00 0.00 0.00 67 1004.1
20260503031532 44 151 3.0 0.0 0.00 0.00 0.00 64 1004.0
20260503030029 47 128 2.0 0.0 0.00 0.00 0.00 58 1003.8
20260503024528 48 346 2.0 0.0 0.00 0.00 0.00 55 1003.7